TimeAKST,TemperatureF,Dew PointF,Humidity,Sea Level PressureIn,VisibilityMPH,Wind Direction,Wind SpeedMPH,Gust SpeedMPH,PrecipitationIn,Events,Conditions,WindDirDegrees,DateUTC
12:36 AM,-18.4,-25.6,70,30.80,10.0,Calm,Calm,-,N/A,,Overcast,0,2013-12-02 09:36:00
12:56 AM,-18.4,-25.6,70,30.79,10.0,Calm,Calm,-,N/A,,Overcast,0,2013-12-02 09:56:00
1:36 AM,-18.4,-25.6,70,30.79,10.0,Calm,Calm,-,N/A,,Overcast,0,2013-12-02 10:36:00
1:56 AM,-18.4,-25.6,70,30.79,10.0,Calm,Calm,-,N/A,,Overcast,0,2013-12-02 10:56:00
2:16 AM,-18.4,-25.6,70,30.79,10.0,Calm,Calm,-,N/A,,Overcast,0,2013-12-02 11:16:00
2:36 AM,-18.4,-25.6,70,30.80,10.0,Calm,Calm,-,N/A,,Overcast,0,2013-12-02 11:36:00
2:56 AM,-18.4,-27.4,63,30.80,10.0,Calm,Calm,-,N/A,,Overcast,0,2013-12-02 11:56:00
3:16 AM,-18.4,-27.4,63,30.81,10.0,Calm,Calm,-,N/A,,Overcast,0,2013-12-02 12:16:00
3:36 AM,-18.4,-27.4,63,30.81,10.0,Calm,Calm,-,N/A,,Overcast,0,2013-12-02 12:36:00
3:56 AM,-20.2,-27.4,69,30.81,10.0,Calm,Calm,-,N/A,,Mostly Cloudy,0,2013-12-02 12:56:00
4:16 AM,-20.2,-29.2,63,30.81,10.0,Calm,Calm,-,N/A,,Overcast,0,2013-12-02 13:16:00
4:36 AM,-20.2,-29.2,63,30.81,10.0,Calm,Calm,-,N/A,,Overcast,0,2013-12-02 13:36:00
4:56 AM,-20.2,-9999,N/A,30.80,10.0,Calm,Calm,-,N/A,,Overcast,0,2013-12-02 13:56:00
5:16 AM,-20.2,-29.2,63,30.81,10.0,Calm,Calm,-,N/A,,Overcast,0,2013-12-02 14:16:00
5:36 AM,-22.0,-29.2,69,30.81,10.0,Calm,Calm,-,N/A,,Overcast,0,2013-12-02 14:36:00
5:56 AM,-22.0,-9999,N/A,30.81,10.0,Calm,Calm,-,N/A,,Overcast,0,2013-12-02 14:56:00
6:16 AM,-22.0,-29.2,69,30.81,10.0,Calm,Calm,-,N/A,,Overcast,0,2013-12-02 15:16:00
6:36 AM,-22.0,-29.2,69,30.82,10.0,Calm,Calm,-,N/A,,Overcast,0,2013-12-02 15:36:00
7:16 AM,-22.0,-9999,N/A,30.81,10.0,Calm,Calm,-,N/A,,Overcast,0,2013-12-02 16:16:00
7:36 AM,-22.0,-9999,N/A,30.81,10.0,Calm,Calm,-,N/A,,Overcast,0,2013-12-02 16:36:00
7:56 AM,-22.0,-9999,N/A,30.81,10.0,Calm,Calm,-,N/A,,Overcast,0,2013-12-02 16:56:00
8:36 AM,-22.0,-9999,N/A,30.82,10.0,Calm,Calm,-,N/A,,Overcast,0,2013-12-02 17:36:00
8:56 AM,-22.0,-9999,N/A,30.81,10.0,Calm,Calm,-,N/A,,Overcast,0,2013-12-02 17:56:00
9:36 AM,-22.0,-29.2,69,30.83,10.0,Calm,Calm,-,N/A,,Overcast,0,2013-12-02 18:36:00
9:56 AM,-22.0,-9999,N/A,30.83,10.0,Calm,Calm,-,N/A,,Overcast,0,2013-12-02 18:56:00
10:16 AM,-22.0,-9999,N/A,30.83,10.0,Calm,Calm,-,N/A,,Mostly Cloudy,0,2013-12-02 19:16:00
10:36 AM,-22.0,-9999,N/A,30.84,10.0,Calm,Calm,-,N/A,,Scattered Clouds,0,2013-12-02 19:36:00
10:56 AM,-23.8,-9999,N/A,30.84,10.0,Calm,Calm,-,N/A,,Mostly Cloudy,0,2013-12-02 19:56:00
11:16 AM,-23.8,-9999,N/A,30.82,10.0,Calm,Calm,-,N/A,,Mostly Cloudy,0,2013-12-02 20:16:00
12:16 PM,-23.8,-9999,N/A,30.82,10.0,Calm,Calm,-,N/A,,Partly Cloudy,0,2013-12-02 21:16:00
12:36 PM,-23.8,-9999,N/A,30.83,10.0,Calm,Calm,-,N/A,,Partly Cloudy,0,2013-12-02 21:36:00
12:56 PM,-23.8,-9999,N/A,30.83,10.0,Calm,Calm,-,N/A,,Partly Cloudy,0,2013-12-02 21:56:00
1:16 PM,-23.8,-9999,N/A,30.83,10.0,Calm,Calm,-,N/A,,Partly Cloudy,0,2013-12-02 22:16:00
1:36 PM,-23.8,-9999,N/A,30.83,10.0,Calm,Calm,-,N/A,,Partly Cloudy,0,2013-12-02 22:36:00
1:56 PM,-23.8,-9999,N/A,30.83,10.0,Calm,Calm,-,N/A,,Partly Cloudy,0,2013-12-02 22:56:00
2:16 PM,-23.8,-9999,N/A,30.84,10.0,Calm,Calm,-,N/A,,Partly Cloudy,0,2013-12-02 23:16:00
2:56 PM,-23.8,-9999,N/A,30.82,10.0,Calm,Calm,-,N/A,,Partly Cloudy,0,2013-12-02 23:56:00
3:16 PM,-23.8,-9999,N/A,30.81,10.0,Calm,Calm,-,N/A,,Partly Cloudy,0,2013-12-03 00:16:00
3:36 PM,-23.8,-9999,N/A,30.79,10.0,Calm,Calm,-,N/A,,Partly Cloudy,0,2013-12-03 00:36:00
3:56 PM,-23.8,-9999,N/A,30.79,10.0,Calm,Calm,-,N/A,,Partly Cloudy,0,2013-12-03 00:56:00
4:16 PM,-22.0,-9999,N/A,30.79,10.0,Calm,Calm,-,N/A,,Clear,0,2013-12-03 01:16:00
4:36 PM,-22.0,-29.2,69,30.80,10.0,Calm,Calm,-,N/A,,Partly Cloudy,0,2013-12-03 01:36:00
4:56 PM,-20.2,-27.4,69,30.80,10.0,Calm,Calm,-,N/A,,Partly Cloudy,0,2013-12-03 01:56:00
5:16 PM,-20.2,-29.2,63,30.80,10.0,Calm,Calm,-,N/A,,Partly Cloudy,0,2013-12-03 02:16:00
5:36 PM,-20.2,-29.2,63,30.79,10.0,Calm,Calm,-,N/A,,Partly Cloudy,0,2013-12-03 02:36:00
5:56 PM,-20.2,-29.2,63,30.79,10.0,Calm,Calm,-,N/A,,Partly Cloudy,0,2013-12-03 02:56:00
6:16 PM,-20.2,-27.4,69,30.82,10.0,Calm,Calm,-,N/A,,Partly Cloudy,0,2013-12-03 03:16:00
6:36 PM,-20.2,-27.4,69,30.81,10.0,Calm,Calm,-,N/A,,Partly Cloudy,0,2013-12-03 03:36:00
6:56 PM,-20.2,-27.4,69,30.80,10.0,Calm,Calm,-,N/A,,Partly Cloudy,0,2013-12-03 03:56:00
7:16 PM,-20.2,-27.4,69,30.80,10.0,Calm,Calm,-,N/A,,Partly Cloudy,0,2013-12-03 04:16:00
7:36 PM,-18.4,-27.4,63,30.80,10.0,Calm,Calm,-,N/A,,Partly Cloudy,0,2013-12-03 04:36:00
7:56 PM,-18.4,-27.4,63,30.80,10.0,Calm,Calm,-,N/A,,Partly Cloudy,0,2013-12-03 04:56:00
8:16 PM,-18.4,-27.4,63,30.78,10.0,Calm,Calm,-,N/A,,Clear,0,2013-12-03 05:16:00
8:36 PM,-18.4,-25.6,70,30.80,10.0,Calm,Calm,-,N/A,,Clear,0,2013-12-03 05:36:00
8:56 PM,-18.4,-25.6,70,30.78,10.0,Calm,Calm,-,N/A,,Clear,0,2013-12-03 05:56:00
9:36 PM,-18.4,-25.6,70,30.79,10.0,Calm,Calm,-,N/A,,Clear,0,2013-12-03 06:36:00
9:56 PM,-18.4,-25.6,70,30.78,10.0,Calm,Calm,-,N/A,,Clear,0,2013-12-03 06:56:00
10:16 PM,-18.4,-27.4,63,30.78,10.0,Calm,Calm,-,N/A,,Clear,0,2013-12-03 07:16:00
10:36 PM,-18.4,-27.4,63,30.80,10.0,West,3.5,-,N/A,,Clear,260,2013-12-03 07:36:00
10:56 PM,-18.4,-25.6,70,30.80,10.0,Calm,Calm,-,N/A,,Clear,0,2013-12-03 07:56:00
11:16 PM,-18.4,-25.6,70,30.78,10.0,Calm,Calm,-,N/A,,Partly Cloudy,0,2013-12-03 08:16:00
11:36 PM,-18.4,-25.6,70,30.78,10.0,Calm,Calm,-,N/A,,Clear,0,2013-12-03 08:36:00